Regional Weather Roundup
Issued by NWS Sioux Falls, SD

Home | Current Version | Previous Version | Graphics & Text | Print | Product List | Glossary On
Versions: 1 2 3 4 5 6 7 8 9 10 11 12 13 14 15 16 17 18 19 20 21 22 23 24 25 26 27 28 29 30 31 32 33 34 35 36 37 38 39 40 41 42 43 44 45 46 47 48 49 50
040
ASUS43 KFSD 190410
RWRFSD

WEATHER ROUNDUP FOR SE SOUTH DAKOTA/SW MINNESOTA/NW IOWA
NATIONAL WEATHER SERVICE SIOUX FALLS SD
1000 PM CST WED JAN 18 2017

NOTE: "FAIR" INDICATES FEW OR NO CLOUDS BELOW 12,000 FEET WITH NO
SIGNIFICANT WEATHER AND OR OBSTRUCTIONS TO VISIBILITY.


SDZ038>040-050-052>070-190500-
SOUTHEAST SOUTH DAKOTA

CITY           SKY/WX    TMP DP  RH WIND       PRES   REMARKS
BROOKINGS      CLOUDY    34  33  96 S8        29.72F WCI  27
CHAMBERLAIN    CLOUDY    29  26  85 SE7       29.66S WCI  22
HURON          CLOUDY    35  33  92 S14       29.68F WCI  26
MADISON          N/A     34  34 100 S10         N/A  WCI  26
MITCHELL       CLOUDY    35  34  96 S9        29.71F WCI  28
SIOUX FALLS    CLEAR     38  37  97 S12       29.76F
WINNER         FAIR      41  26  55 SW14      29.64F
YANKTON        CLEAR     37  34  87 S9        29.76R
$$

MNZ071-072-080-081-089-090-097-098-190500-
SOUTHWEST MINNESOTA

CITY           SKY/WX    TMP DP  RH WIND       PRES   REMARKS
FAIRMONT       CLEAR     36  33  89 S13       29.84S
JACKSON        CLEAR     34  32  93 S12       29.82S WCI  25
LUVERNE        CLEAR     34  32  93 S9        29.78F WCI  26
MARSHALL       CLOUDY    39  35  86 S17       29.74F
MONTEVIDEO     CLOUDY    28  28 100 S7        29.77F FOG     WCI  21
PIPESTONE      CLEAR     37  36  93 S15       29.75S
REDWOOD FALLS  CLOUDY    33  30  88 S7        29.77F WCI  27
TRACY          CLEAR     41  37  87 SW21      29.75S
WINDOM           N/A     39  36  87 S12G17    29.79S
WORTHINGTON    CLEAR     38  35  89 S16       29.79F
$$

IAZ001>003-012>014-020>022-031-032-NEZ013-014-SDZ071-190500-
NORTHWEST IOWA

CITY           SKY/WX    TMP DP  RH WIND       PRES   REMARKS
CHEROKEE       CLEAR     37  36  96 S13       29.84F
DENISON        CLEAR     37  36  93 S7        29.87F
ESTHERVILLE    CLEAR     33  33 100 S10       29.83S WCI  25
LE MARS        CLEAR     37  36  93 S8        29.83S
ORANGE CITY    CLEAR     37  36  93 S9        29.81S
SHELDON        CLEAR     37  37 100 S13       29.80S
SIOUX CITY     CLEAR     37  34  89 SE10      29.83F
SPENCER        CLEAR     35  34  96 S8        29.83S WCI  29
STORM LAKE     CLEAR     36  34  93 S13       29.85S
$$

ABBREVIATIONS USED IN REMARKS
   TC - TEMPERATURE IN CELSIUS
  WCI - WIND CHILL INDEX
   HX - HEAT INDEX
  VSB - VISIBILITY





USA.gov is the U.S. government's official web portal to all federal, state and local government web resources and services.